Flag for Portugal Weather past 2 weeks in Funchal, Madeira, Portugal

70 °F

Passing clouds.

Feels Like: 70 °F
Forecast: 71 / 76 °F
Wind: 6 mph from West

Location: Aeroporto Da Madeira

Current Time: Oct 10, 2015 at 7:16:21 AM

Latest Report: Oct 10, 2015 at 6:30 AM

Visibility: N/A

Pressure: 29.83 "Hg

Humidity: 88%

Dew point: 66 °F

Location of FunchalLocation

Historic Weather in Funchal — Graph


Funchal temperature yesterday

Maximum temperature yesterday: 75 °F (at 2:30 PM)
Minimum temperature yesterday: 68 °F (at 12:30 AM)
Average temperature yesterday: 72 °F

Past Weeks' High & Low Weather Summary

High82 °F (Oct 5, 3:00 PM)94% (Oct 9, 10:30 AM)30.18 "Hg (Oct 9, 10:30 AM)
Low66 °F (Sep 29, 7:30 AM)51% (Sep 27, 2:00 PM)29.80 "Hg (Oct 9, 4:00 PM)
Average73 °F71%30.04 "Hg
* Reported Sep 25 6:00 AM — Oct 10 6:00 AM, Funchal, Weather by CustomWeather, © 2015

Note: Actual official high and low records may vary slightly from our data, if they occured in-between our weather recording intervals... More about our weather records


Funchal weather history for previous 24 hours

Time TempWeatherWind HumidityBarometerVisibility
6:00 AM
Sat, Oct 10
72 °FPassing clouds.5 mph83%29.83 "HgN/A
5:30 AM70 °FPassing clouds.3 mph88%29.83 "HgN/A
5:00 AM70 °FPassing clouds.2 mph83%29.83 "HgN/A
4:30 AM72 °FPassing clouds.7 mph83%29.83 "HgN/A
4:00 AM70 °FPassing clouds.3 mph88%29.83 "HgN/A
3:30 AM72 °FPassing clouds.8 mph88%29.83 "HgN/A
3:00 AM72 °FPassing clouds.5 mph83%29.83 "HgN/A
2:30 AM70 °FPassing clouds.No wind88%29.83 "HgN/A
2:00 AM72 °FPassing clouds.2 mph83%29.83 "HgN/A
1:30 AM73 °FPassing clouds.6 mph83%29.86 "HgN/A
1:00 AM72 °FPassing clouds.6 mph88%29.86 "HgN/A
12:30 AM72 °FPassing clouds.3 mph83%29.86 "HgN/A
12:00 AM72 °FPassing clouds.6 mph88%29.86 "HgN/A
11:30 PM
Fri, Oct 9
73 °FPassing clouds.9 mph83%29.86 "HgN/A
11:00 PM73 °FPassing clouds.3 mph83%29.86 "HgN/A
10:00 PM73 °FPassing clouds.5 mph83%29.83 "HgN/A
9:30 PM72 °FScattered clouds.2 mph88%29.83 "HgN/A
9:00 PM72 °FScattered clouds.5 mph88%29.83 "HgN/A
8:30 PM73 °FPassing clouds.2 mph83%29.83 "HgN/A
8:00 PM73 °FPassing clouds.No wind89%29.83 "HgN/A
7:30 PM73 °FPassing clouds.5 mph89%29.83 "HgN/A
7:00 PM75 °FPassing clouds.3 mph83%29.83 "HgN/A
6:30 PM75 °FPartly sunny.9 mph83%29.83 "HgN/A
6:00 PM75 °FPartly sunny.10 mph83%29.83 "HgN/A
5:30 PM75 °FPartly sunny.7 mph83%29.83 "HgN/A
5:00 PM73 °FLight rain. Scattered clouds.5 mph89%29.83 "HgN/A
4:30 PM73 °FRain. Scattered clouds.23 mph94%29.80 "Hg4 mi
4:00 PM75 °FLight rain. Scattered clouds.23 mph89%29.80 "Hg4 mi
3:30 PM75 °FLight rain. Scattered clouds.22 mph89%29.83 "Hg4 mi
3:00 PM75 °FRain. Scattered clouds.28 mph89%29.83 "Hg4 mi
2:30 PM75 °FLight rain. Scattered clouds.29 mph89%29.83 "Hg4 mi
2:00 PM73 °FScattered clouds.25 mph94%29.86 "HgN/A
1:30 PM73 °FScattered clouds.25 mph94%29.86 "HgN/A
1:00 PM73 °FScattered clouds.20 mph89%29.89 "HgN/A
12:30 PM73 °FScattered clouds.20 mph89%29.89 "HgN/A
12:00 PM73 °FScattered clouds.16 mph89%29.92 "HgN/A
11:30 AM72 °FScattered clouds.15 mph88%29.92 "HgN/A
11:00 AM72 °FScattered clouds.18 mph88%29.92 "HgN/A
10:30 AM70 °FScattered clouds.17 mph94%29.92 "Hg5 mi
10:00 AM70 °FPassing clouds.22 mph88%29.92 "HgN/A
9:30 AM70 °FPassing clouds.18 mph88%29.92 "HgN/A
9:00 AM72 °FPassing clouds.20 mph78%29.92 "HgN/A
8:30 AM72 °FPassing clouds.21 mph73%29.92 "HgN/A
8:00 AM72 °FPassing clouds.17 mph73%29.92 "HgN/A
7:30 AM72 °FPassing clouds.22 mph73%29.92 "HgN/A
7:00 AM72 °FPassing clouds.14 mph73%29.92 "HgN/A
Weather by CustomWeather, © 2015

See weather overviewHow to use our weather pages